TimeCST,TemperatureF,Dew PointF,Humidity,Sea Level PressureIn,VisibilityMPH,Wind Direction,Wind SpeedMPH,Gust SpeedMPH,PrecipitationIn,Events,Conditions,WindDirDegrees,DateUTC
12:00 AM,64.4,60.8,88,30.36,6.2,North,13.8,-,N/A,,Scattered Clouds,360,2013-08-07 06:00:00
1:00 AM,75.2,57.2,53,30.30,6.2,North,11.5,-,N/A,,Partly Cloudy,350,2013-08-07 07:00:00
2:00 AM,64.4,62.6,94,30.33,6.2,North,11.5,-,N/A,,Scattered Clouds,360,2013-08-07 08:00:00
3:00 AM,64.4,60.8,88,30.30,6.2,NNW,6.9,-,N/A,,Mostly Cloudy,330,2013-08-07 09:00:00
4:00 AM,62.6,60.8,94,30.30,6.2,North,6.9,-,N/A,,Mostly Cloudy,360,2013-08-07 10:00:00
5:00 AM,62.6,60.8,94,30.30,6.2,North,6.9,-,N/A,,Scattered Clouds,360,2013-08-07 11:00:00
6:00 AM,63,60,89,29.99,25,NNE,11.5,,,,Overcast,20,2013-08-07 12:00:00
6:00 AM,62.6,60.8,94,30.30,6.2,NNE,11.5,-,N/A,,Mostly Cloudy,20,2013-08-07 12:00:00
7:00 AM,64.4,60.8,88,30.33,6.2,NNE,9.2,-,N/A,,Mostly Cloudy,20,2013-08-07 13:00:00
8:00 AM,68.0,60.8,78,30.33,6.2,NNE,9.2,-,N/A,,Scattered Clouds,30,2013-08-07 14:00:00
9:00 AM,69.8,57.2,64,30.33,6.2,North,9.2,-,N/A,,Partly Cloudy,10,2013-08-07 15:00:00
10:00 AM,73.4,57.2,57,30.33,6.2,North,6.9,-,N/A,,Partly Cloudy,10,2013-08-07 16:00:00
11:00 AM,75.2,57.2,53,30.30,6.2,North,11.5,-,N/A,,Partly Cloudy,350,2013-08-07 17:00:00
12:00 PM,77,54,34,29.93,25,North,11.5,,,,Scattered Clouds,0,2013-08-07 18:00:00
12:00 PM,77.0,53.6,44,30.30,6.2,North,11.5,-,N/A,,Partly Cloudy,360,2013-08-07 18:00:00
1:00 PM,78.8,53.6,42,30.27,6.2,NNE,13.8,-,N/A,,Partly Cloudy,30,2013-08-07 19:00:00
2:00 PM,78.8,51.8,39,30.24,6.2,NNE,13.8,-,N/A,,Partly Cloudy,20,2013-08-07 20:00:00
3:00 PM,78.8,51.8,39,30.24,6.2,NNE,13.8,-,N/A,,Partly Cloudy,20,2013-08-07 21:00:00
4:00 PM,80.6,51.8,37,30.21,6.2,NNE,11.5,-,N/A,,Partly Cloudy,30,2013-08-07 22:00:00
5:00 PM,77.0,50.0,39,30.21,6.2,NNE,13.8,-,N/A,,Partly Cloudy,20,2013-08-07 23:00:00
6:00 PM,75.2,48.2,38,30.24,6.2,North,13.8,-,N/A,,Scattered Clouds,360,2013-08-08 00:00:00
7:00 PM,71.6,55.4,57,30.24,-9999.0,North,13.8,-,N/A,,Clear,360,2013-08-08 01:00:00
8:00 PM,69.8,55.4,60,30.27,-9999.0,North,9.2,-,N/A,,Clear,360,2013-08-08 02:00:00
9:00 PM,68.0,57.2,68,30.30,-9999.0,North,9.2,-,N/A,,Clear,360,2013-08-08 03:00:00
10:00 PM,68.0,55.4,64,30.33,-9999.0,North,11.5,-,N/A,,Clear,360,2013-08-08 04:00:00
11:00 PM,66.2,59.0,78,30.30,-9999.0,North,13.8,-,N/A,,Clear,360,2013-08-08 05:00:00